User: anonymous   Login
Location: *
(43.9900°N, 3.4811°E)
Time: 13:19:57
(UTC+00:00)
Language:

Cosmos 1709 Rocket - Orbit

View from above orbital plane
View from above orbital plane
View from above satellite
View from above satellite

Ground track
Ground track

The orbit data is extracted from the following two-line orbital elements,

1 16369U 85116B   19287.91151598 -.00000065 +00000-0 -81131-4 0  9993
2 16369 082.9357 076.2508 0035276 301.5320 168.6151 13.76842619698600
Epoch (UTC): 14 October 2019 21:52:34
Eccentricity: 0.0035276
inclination: 82.9357°
perigee height: 949 km
apogee height: 1001 km
right ascension of ascending node: 76.2508°
argument of perigee: 301.5320°
revolutions per day: 13.76842619
mean anomaly at epoch: 168.6151°
orbit number at epoch: 69860

The dashed part of the orbit path shows where the satellite is in the earth's shadow,  

DLR